[[{"header":{"parameterUnit":"m.s-1","parameterCategory":1,"la1":30.2991,"la2":30.254,"lo1":-89.0895,"lo2":-89.0444,"dx":0.0017,"dy":0.0017,"nx":28,"ny":28,"refTime":"2023-01-22T03:00:00:Z","depth":0,"parameterNumber":2,"parameterNumberName":"U-component_of_WINDS"},"data":[0,0,0,0,0,0,0,0,0,0,0,0,0,0,0,0,0,0,0,0,0,0,0,0,0,0,0,0,0,0,0,0,0,0,0,0,0,0,0,0,0,0,0,0,0,0,0,0,0,0,0,0,0,0,0,0,0,0,-0.4533,-0.4533,0,-0.4529,-0.4529,-0.4529,-0.4493,-0.4492,-0.4491,-0.449,-0.4488,-0.4488,-0.4489,0,0,0,0,0,0,0,0,0,0,0,0,0,-0.4513,-0.4513,-0.4533,-0.4533,-0.4533,-0.4529,-0.4529,-0.4529,-0.4493,-0.4492,-0.4491,-0.449,-0.4487,-0.4488,-0.4489,0,0,0,0,0,0,0,0,0,0,0,0,0,-0.4516,-0.4514,-0.4533,-0.4515,-0.4513,-0.4529,-0.4529,-0.4529,-0.4493,-0.4492,-0.4491,-0.4489,-0.4487,-0.4488,-0.4489,-0.4523,0,0,-0.4493,-0.4493,0,0,0,0,0,0,0,0,-0.4516,-0.4517,-0.4518,-0.4516,-0.4514,-0.451,-0.452,-0.4527,-0.4494,-0.4501,-0.449,-0.4489,-0.4496,-0.4497,-0.4499,-0.4523,-0.4522,-0.4493,-0.4494,-0.4494,-0.4494,0,0,0,0,0,0,0,-0.4516,-0.4517,-0.4532,-0.4518,-0.4516,-0.4507,-0.4506,-0.4521,-0.4506,-0.45,-0.4498,-0.4497,-0.4495,-0.4498,-0.4498,-0.4522,-0.4493,-0.4494,-0.4495,-0.4495,-0.4573,-0.4574,0,0,0,0,0,0,-0.4518,-0.4517,-0.4532,-0.4531,-0.4512,-0.4509,-0.4508,-0.4513,-0.4506,-0.4504,-0.4499,-0.4496,-0.4496,-0.4497,-0.4498,-0.4537,-0.4494,-0.4495,-0.4496,-0.4571,-0.4573,-0.4575,0,0,0,0,0,0,-0.4518,-0.452,-0.4532,-0.4524,-0.4524,-0.4511,-0.4517,-0.4513,-0.4516,-0.4505,-0.4502,-0.4504,-0.4495,-0.4497,-0.4517,-0.4536,-0.4496,-0.4497,-0.457,-0.4572,-0.4574,-0.4614,0,0,0,0,0,0,-0.4517,-0.452,-0.4532,-0.4524,-0.4525,-0.455,-0.4518,-0.4514,-0.4518,-0.4514,-0.4509,-0.4507,-0.4494,-0.4515,-0.4518,-0.4537,-0.4497,-0.4568,-0.4571,-0.4573,-0.4611,-0.4617,-0.4623,0,0,0,0,0,-0.4517,-0.4544,-0.4533,-0.4535,-0.454,-0.4552,-0.4552,-0.4537,-0.4519,-0.4532,-0.4524,-0.4507,-0.4533,-0.4517,-0.452,-0.454,-0.4567,-0.457,-0.4573,-0.4608,-0.4616,-0.4622,0,0,0,0,0,0,-0.4556,-0.4543,-0.453,-0.4556,-0.4555,-0.4545,-0.4561,-0.4545,-0.455,-0.4547,-0.4528,-0.4527,-0.455,-0.4547,-0.4529,-0.4571,-0.4547,-0.4551,-0.4573,-0.458,-0.4586,-0.4586,-0.4498,0,0,0,0,0,-0.4568,-0.4578,-0.4566,-0.4589,-0.4589,-0.4575,-0.458,-0.4568,-0.4566,-0.4566,-0.456,-0.456,-0.4568,-0.4574,-0.458,-0.461,-0.4608,-0.4625,-0.463,-0.4635,-0.4639,-0.4654,-0.4661,-0.4585,-0.4585,-0.4585,0,0,-0.4592,-0.4586,-0.4594,-0.4597,-0.4595,-0.4606,-0.4575,-0.4588,-0.4596,-0.4568,-0.4586,-0.4582,-0.458,-0.4605,-0.4616,-0.4603,-0.466,-0.4639,-0.4643,-0.4644,-0.4658,-0.4665,-0.4672,-0.4587,-0.4587,-0.4586,0,0,-0.4642,-0.4638,-0.4658,-0.4656,-0.4652,-0.4642,-0.4647,-0.4639,-0.4635,-0.4653,-0.4632,-0.4641,-0.4655,-0.4655,-0.4657,-0.4705,-0.4689,-0.4708,-0.4739,-0.4753,-0.476,-0.4765,-0.4782,-0.4789,-0.4711,-0.4711,-0.4711,0,-0.4673,-0.4688,-0.467,-0.4684,-0.4686,-0.4659,-0.4679,-0.4678,-0.4678,-0.468,-0.4666,-0.4682,-0.4679,-0.4704,-0.4715,-0.4717,-0.4722,-0.4709,-0.476,-0.4765,-0.477,-0.4786,-0.4793,-0.4714,-0.4713,-0.4713,-0.4713,0,-0.4726,-0.4737,-0.4753,-0.4752,-0.4756,-0.4773,-0.4757,-0.4763,-0.475,-0.4742,-0.4761,-0.4756,-0.4761,-0.4765,-0.4754,-0.4788,-0.478,-0.4763,-0.4738,-0.478,-0.4795,-0.4801,-0.4717,-0.4716,-0.4715,-0.4715,0,0,-0.4803,-0.479,-0.4796,-0.4795,-0.4789,-0.4797,-0.4812,-0.4816,-0.4822,-0.4822,-0.4835,-0.4847,-0.4831,-0.4833,-0.482,-0.4833,-0.4872,-0.4815,-0.4814,-0.4826,-0.4909,-0.4922,-0.493,-0.4861,-0.4862,-0.4863,-0.4909,0,-0.4851,-0.4876,-0.4859,-0.4887,-0.4897,-0.4871,-0.4884,-0.4882,-0.4874,-0.4882,-0.4873,-0.4882,-0.486,-0.4861,-0.4873,-0.4865,-0.4888,-0.4861,-0.4873,-0.4873,-0.4875,-0.4938,-0.4952,-0.4997,-0.4915,-0.4916,-0.4917,0,-0.4911,-0.4913,-0.4942,-0.4932,-0.4936,-0.4948,-0.495,-0.4957,-0.4954,-0.4947,-0.4949,-0.4933,-0.4947,-0.4922,-0.4941,-0.4923,-0.4927,-0.4923,-0.4925,-0.4926,-0.4898,-0.4941,-0.5011,-0.5018,-0.4926,-0.4925,-0.4924,0,-0.4964,-0.4974,-0.4992,-0.4992,-0.4981,-0.4991,-0.4987,-0.4982,-0.4985,-0.4987,-0.4989,-0.4993,-0.4995,-0.4998,-0.4984,-0.4967,-0.5006,-0.4979,-0.5001,-0.5001,-0.5011,-0.5011,-0.5083,-0.5012,-0.5012,-0.5012,-0.5012,0,-0.5021,-0.504,-0.5016,-0.5027,-0.5047,-0.5027,-0.5048,-0.5041,-0.5037,-0.5047,-0.5025,-0.5034,-0.5014,-0.5022,-0.501,-0.5029,-0.503,-0.5025,-0.5022,-0.5028,-0.5028,-0.503,-0.5027,-0.5014,-0.5014,-0.5013,-0.5013,0,-0.5084,-0.5069,-0.5087,-0.5075,-0.5073,-0.5088,-0.5078,-0.5088,-0.5078,-0.5091,-0.5093,-0.5077,-0.5085,-0.507,-0.5077,-0.5069,-0.5095,-0.5086,-0.5096,-0.5094,-0.5116,-0.5115,-0.5193,-0.5202,-0.5125,-0.5126,-0.5127,0,-0.5122,-0.5135,-0.5124,-0.5129,-0.5126,-0.5134,-0.5136,-0.5117,-0.5121,-0.5117,-0.5128,-0.5134,-0.5137,-0.5151,-0.5141,-0.5145,-0.5137,-0.5164,-0.5138,-0.5143,-0.5138,-0.5138,-0.5139,-0.517,-0.5171,-0.5172,-0.5172,0,-0.519,-0.5181,-0.5185,-0.5187,-0.5191,-0.5192,-0.5191,-0.5196,-0.5175,-0.5181,-0.5188,-0.519,-0.5196,-0.5202,-0.5204,-0.52,-0.5183,-0.518,-0.5186,-0.5192,-0.5197,-0.5195,-0.5111,-0.5179,-0.5178,-0.5178,-0.5177,-0.5177,-0.5242,-0.5252,-0.5246,-0.5251,-0.5248,-0.5248,-0.5256,-0.5247,-0.5252,-0.5255,-0.5243,-0.5253,-0.5248,-0.5248,-0.5246,-0.5254,-0.5242,-0.525,-0.5252,-0.5254,-0.5258,-0.5195,-0.5254,-0.5254,-0.5254,-0.5254,-0.5253,0,-0.5309,-0.5303,-0.5308,-0.5307,-0.5311,-0.5293,-0.5291,-0.5296,-0.5305,-0.5301,-0.5305,-0.5313,-0.5318,-0.5308,-0.5312,-0.532,-0.5312,-0.5321,-0.5321,-0.532,-0.5268,-0.5264,-0.5327,-0.5327,-0.5327,-0.5327,-0.5327,-0.5327,-0.5344,-0.5361,-0.5352,-0.5367,-0.5361,-0.537,-0.537,-0.5369,-0.5366,-0.5376,-0.538,-0.5373,-0.5366,-0.5369,-0.5373,-0.537,-0.5373,-0.5385,-0.5379,-0.5331,-0.5324,-0.5317,-0.5313,-0.5386,-0.5386,-0.5431,-0.5431,-0.5431]},{"header":{"parameterUnit":"m.s-1","parameterCategory":1,"la1":30.2991,"la2":30.254,"lo1":-89.0895,"lo2":-89.0444,"dx":0.0017,"dy":0.0017,"nx":28,"ny":28,"refTime":"2023-01-22T03:00:00:Z","depth":0,"parameterNumber":3,"parameterNumberName":"V-component_of_WINDS"},"data":[0,0,0,0,0,0,0,0,0,0,0,0,0,0,0,0,0,0,0,0,0,0,0,0,0,0,0,0,0,0,0,0,0,0,0,0,0,0,0,0,0,0,0,0,0,0,0,0,0,0,0,0,0,0,0,0,0,0,-5.9884,-5.9885,0,-5.9989,-5.999,-5.9991,-5.9955,-5.9953,-5.9951,-5.9948,-6.005,-6.0054,-6.0059,0,0,0,0,0,0,0,0,0,0,0,0,0,-5.9646,-5.965,-5.9883,-5.9885,-5.9886,-5.9989,-5.999,-5.9992,-5.9956,-5.9953,-5.995,-5.9947,-6.0048,-6.0054,-6.006,0,0,0,0,0,0,0,0,0,0,0,0,0,-5.975,-5.9652,-5.9883,-5.9881,-5.9882,-5.9988,-5.999,-5.9992,-5.9956,-5.9953,-5.9949,-5.9946,-6.0046,-6.0053,-6.006,-6.0174,0,0,-6.0083,-6.0086,0,0,0,0,0,0,0,0,-5.9744,-5.9758,-5.988,-5.9881,-5.9882,-5.9956,-5.9943,-6.0053,-5.9957,-5.9928,-5.9948,-5.9944,-6.0021,-6.003,-6.0057,-6.0179,-6.0183,-6.0083,-6.0088,-6.0091,-6.0093,0,0,0,0,0,0,0,-5.9737,-5.9754,-5.9925,-5.9882,-5.9883,-5.9872,-5.9883,-5.9964,-5.9992,-5.993,-5.9928,-5.9941,-6.0021,-6.005,-6.0059,-6.0185,-6.0083,-6.0089,-6.0094,-6.0097,-6.0406,-6.0409,0,0,0,0,0,0,-5.973,-5.9748,-5.9922,-5.9928,-5.9803,-5.988,-5.9892,-5.9935,-5.9991,-5.9996,-5.9944,-5.9939,-6.0039,-6.0051,-6.0062,-6.02,-6.0091,-6.0097,-6.0102,-6.0402,-6.0406,-6.0411,0,0,0,0,0,0,-5.9725,-5.9745,-5.9917,-5.9838,-5.9859,-5.9887,-5.9936,-5.9939,-5.9969,-6.0002,-6.0006,-5.9969,-6.0037,-6.0052,-6.0147,-6.0203,-6.0101,-6.0107,-6.0397,-6.0403,-6.0409,-6.0476,0,0,0,0,0,0,-5.9718,-5.9744,-5.9789,-5.9839,-5.9863,-6.0002,-5.994,-5.9944,-5.9982,-5.9977,-6.0026,-6.0031,-6.0036,-6.0137,-6.0154,-6.0211,-6.0113,-6.0392,-6.04,-6.0407,-6.0468,-6.0483,-6.0495,0,0,0,0,0,-5.971,-5.9802,-5.9791,-5.9812,-5.992,-6.0006,-6.0019,-6.0024,-5.9987,-6.0031,-6.0052,-6.003,-6.0194,-6.0147,-6.0166,-6.0226,-6.0389,-6.0398,-6.0406,-6.0462,-6.048,-6.0495,0,0,0,0,0,0,-5.9754,-5.9808,-5.9797,-5.9908,-5.9953,-5.9999,-6.0056,-6.0042,-6.0097,-6.0089,-6.0091,-6.0102,-6.0201,-6.0222,-6.0169,-6.0339,-6.0286,-6.0299,-6.0322,-6.0339,-6.0352,-6.0344,-6.0119,0,0,0,0,0,-5.9778,-5.9845,-5.9887,-5.9981,-6.0005,-6.0027,-6.0064,-6.0064,-6.011,-6.0128,-6.0156,-6.0199,-6.026,-6.03,-6.0359,-6.0471,-6.0482,-6.0522,-6.0535,-6.0546,-6.0558,-6.0619,-6.0638,-6.0439,-6.0439,-6.0439,0,0,-5.9826,-5.9863,-5.9905,-5.9991,-6.0026,-6.0094,-6.0043,-6.0116,-6.0166,-6.0138,-6.023,-6.0253,-6.0301,-6.0406,-6.0453,-6.0427,-6.0615,-6.0557,-6.0566,-6.0571,-6.063,-6.0649,-6.0666,-6.0445,-6.0444,-6.0443,0,0,-5.9948,-5.9984,-6.0067,-6.0103,-6.0157,-6.0171,-6.0191,-6.024,-6.0255,-6.0348,-6.0329,-6.0387,-6.0493,-6.0528,-6.056,-6.0698,-6.0679,-6.0716,-6.0786,-6.0846,-6.0862,-6.0876,-6.0925,-6.0943,-6.0727,-6.0727,-6.0728,0,-6.0,-6.0104,-6.011,-6.0187,-6.0225,-6.0205,-6.0289,-6.0323,-6.0392,-6.0418,-6.0389,-6.0522,-6.0553,-6.0666,-6.07,-6.0726,-6.0748,-6.0711,-6.086,-6.0874,-6.0887,-6.0934,-6.0952,-6.0732,-6.0731,-6.0731,-6.073,0,-6.0166,-6.0238,-6.0298,-6.0369,-6.0414,-6.0493,-6.051,-6.0555,-6.0551,-6.0568,-6.0663,-6.07,-6.0766,-6.0792,-6.0788,-6.0905,-6.0887,-6.0859,-6.0805,-6.091,-6.0954,-6.0972,-6.0738,-6.0736,-6.0735,-6.0734,0,0,-6.0319,-6.0394,-6.0416,-6.0448,-6.0507,-6.0562,-6.064,-6.0707,-6.0745,-6.0793,-6.0859,-6.0949,-6.0924,-6.096,-6.096,-6.1013,-6.112,-6.0978,-6.0979,-6.1003,-6.1252,-6.1273,-6.1294,-6.1108,-6.1111,-6.1114,-6.1248,0,-6.0447,-6.0587,-6.0595,-6.0721,-6.0788,-6.0771,-6.0839,-6.0881,-6.0899,-6.0957,-6.0975,-6.104,-6.1001,-6.1023,-6.1075,-6.1096,-6.117,-6.1087,-6.1167,-6.117,-6.1157,-6.1317,-6.134,-6.1464,-6.1265,-6.1268,-6.127,0,-6.0614,-6.0672,-6.0806,-6.0856,-6.0884,-6.0946,-6.1008,-6.1064,-6.1112,-6.1121,-6.1163,-6.1155,-6.1234,-6.1178,-6.1285,-6.1229,-6.1262,-6.1277,-6.1282,-6.129,-6.1227,-6.133,-6.1504,-6.1523,-6.1297,-6.1295,-6.1293,0,-6.0714,-6.0823,-6.0918,-6.0946,-6.1007,-6.1051,-6.1078,-6.1123,-6.1163,-6.1217,-6.1242,-6.1304,-6.1337,-6.1384,-6.1393,-6.1351,-6.1501,-6.1445,-6.151,-6.151,-6.1543,-6.154,-6.1725,-6.1564,-6.1563,-6.1563,-6.1563,0,-6.0856,-6.0938,-6.0964,-6.1022,-6.1114,-6.1122,-6.1212,-6.1236,-6.1276,-6.1337,-6.1324,-6.1382,-6.139,-6.1449,-6.1456,-6.1545,-6.1559,-6.1568,-6.1569,-6.157,-6.1569,-6.1592,-6.1583,-6.1568,-6.1567,-6.1566,-6.1565,0,-6.0982,-6.1002,-6.1105,-6.1155,-6.117,-6.1236,-6.1278,-6.1333,-6.135,-6.1428,-6.1446,-6.1472,-6.1541,-6.1555,-6.1636,-6.164,-6.1746,-6.1738,-6.1731,-6.173,-6.1795,-6.1789,-6.2001,-6.2029,-6.1849,-6.185,-6.1852,0,-6.1071,-6.1135,-6.1194,-6.1235,-6.1266,-6.1332,-6.1374,-6.1384,-6.1427,-6.1487,-6.1535,-6.1603,-6.1658,-6.1769,-6.1794,-6.1855,-6.1849,-6.1919,-6.1858,-6.1857,-6.185,-6.1847,-6.1853,-6.1931,-6.1932,-6.1934,-6.1935,0,-6.1229,-6.1236,-6.1298,-6.1364,-6.1415,-6.1467,-6.1516,-6.155,-6.1566,-6.1615,-6.1688,-6.1731,-6.1814,-6.1882,-6.1944,-6.1969,-6.1955,-6.1955,-6.1973,-6.1974,-6.1968,-6.1973,-6.1764,-6.195,-6.1948,-6.1947,-6.1946,-6.1946,-6.134,-6.1396,-6.1447,-6.1516,-6.1555,-6.1601,-6.1656,-6.1682,-6.1743,-6.1814,-6.1815,-6.1893,-6.1939,-6.2021,-6.2051,-6.2111,-6.2089,-6.2115,-6.2122,-6.2129,-6.2135,-6.1959,-6.2122,-6.2122,-6.2122,-6.2121,-6.2121,0,-6.1497,-6.1529,-6.1593,-6.1664,-6.1718,-6.1703,-6.1757,-6.1803,-6.1873,-6.1918,-6.1974,-6.2056,-6.2122,-6.2153,-6.2217,-6.226,-6.2255,-6.2276,-6.2273,-6.228,-6.2151,-6.2129,-6.2279,-6.2279,-6.2279,-6.2279,-6.2279,-6.2279,-6.1585,-6.168,-6.1694,-6.1807,-6.1838,-6.1917,-6.1949,-6.1992,-6.2028,-6.2122,-6.2178,-6.2198,-6.2238,-6.2305,-6.2365,-6.2372,-6.2396,-6.2421,-6.2425,-6.2304,-6.2288,-6.2273,-6.2253,-6.2426,-6.2426,-6.2548,-6.255,-6.255]}]]